Regional Weather Roundup
Issued by NWS Cleveland, OH

Home | Current Version | Previous Version | Text Only | Print | Product List | Glossary Off
Versions: 1 2 3 4 5 6 7 8 9 10 11 12 13 14 15 16 17 18 19 20 21 22 23 24 25 26 27 28 29 30 31 32 33 34 35 36 37 38 39 40 41 42 43 44 45 46 47 48 49 50

000
ASUS41 KCLE 230110
RWRCLE
OHIO REGIONAL WEATHER ROUNDUP
NATIONAL WEATHER SERVICE CLEVELAND, OH
900 PM EDT TUE APR 22 2014

NOTE: "FAIR" INDICATES FEW OR NO CLOUDS BELOW 12,000 FEET WITH NO
SIGNIFICANT WEATHER AND/OR OBSTRUCTIONS TO VISIBILITY.

OHZ001>008-015>018-024>027-034-035-043-044-230200-
   NORTHWEST OHIO

CITY           SKY/WX    TMP DP  RH WIND       PRES   REMARKS
DEFIANCE       CLEAR     47  31  53 NW16      29.93R
FINDLAY        MOCLDY    49  33  54 NW17G28   29.88R
TOLEDO EXPRESS CLOUDY    47  30  51 NW17      29.91R
TOLEDO EXEC    CLOUDY    48  30  49 NW22      29.91R
LIMA           PTCLDY    48  33  56 NW18G26   29.91R
$$

OHZ009>014-019>023-028>033-038-089-230200-
   NORTHEAST OHIO

CITY           SKY/WX    TMP DP  RH WIND       PRES   REMARKS
CLE-HOPKINS    MOCLDY    49  35  58 NW13G22   29.86R
CLE-LAKEFRONT  CLOUDY    45  38  76 NW15      29.82R
CUY CO. ARPT   CLOUDY    45  36  70 N17       29.83R
LORAIN-ELYRIA  CLOUDY    50  36  58 N15G22    29.85R
ASHTABULA      CLOUDY    43  34  70 NW12      29.81R
AKRON-CANTON   CLOUDY    50  33  51 NW12      29.81R
WOOSTER        CLOUDY    49  34  56 N17       29.83R
MANSFIELD      CLOUDY    49  34  56 NW15G25   29.84R
YOUNGSTOWN     CLOUDY    46  34  62 NW10      29.79R
$$

OHZ042-051>053-060>062-070>072-077>081-230200-
  SOUTHWEST OHIO

CITY           SKY/WX    TMP DP  RH WIND       PRES   REMARKS
CINC-COVINGTON PTCLDY    55  32  41 NW16      29.91R
CINC-LUNKEN    CLEAR     55  31  39 NW12G23   29.93R
HAMILTON       CLEAR     54  33  45 NW14G24   29.93R
DAYTON         PTCLDY    50  32  50 NW20G30   29.93R
WRIGHT-PAT AFB PTCLDY    51  32  47 NW20G30   29.92R
DAYTON GENERAL PTCLDY    51  31  46 NW20G30   29.91R
WILMINGTON     PTCLDY    52  30  43 NW17G24   29.89R
$$

OHZ036-037-039>041-045>050-054>059-063>069-073>076-082>088-230200-
  CENTRAL AND SOUTHEAST OHIO

CITY           SKY/WX    TMP DP  RH WIND       PRES   REMARKS
COLUMBUS       MOCLDY    54  32  43 NW20      29.85R
OSU AIRPORT    PTCLDY    51  33  50 NW15      29.86R
BOLTON FIELD   PTCLDY    51  34  52 NW16G23   29.87R
RICKENBACK AFB PTCLDY    56  28  34 NW21      29.86R
NEWARK         PTCLDY    53  31  42 NW13      29.83R
MARION         CLOUDY    51  33  50 NW15G25   29.87R
LANCASTER      MOCLDY    54  33  45 NW16G23   29.85R
ZANESVILLE     PTCLDY    55  33  43 NW14G25   29.81R
NEW PHILLY     CLOUDY    51  33  50 N12G23    29.82R
$$



USA.gov is the U.S. government's official web portal to all federal, state and local government web resources and services.